Weather History for Grand Forks AFB, ND

Change the Weather History Date:

Sunday, March 9, 2014

  Actual Average Record
Temperature  
Mean Temperature 34 °F -  
Max Temperature 42 °F 23 °F 42 °F (2014)
Min Temperature 26 °F 6 °F -13 °F (2003)
Degree Days  
Heating Degree Days 31    
Moisture  
Dew Point 30 °F    
Average Humidity 82    
Maximum Humidity 96    
Minimum Humidity 67    
Precipitation  
Precipitation 0.00 in - - ()
Sea Level Pressure  
Sea Level Pressure 29.65 in    
Wind  
Wind Speed 10 mph (WSW)    
Max Wind Speed 15 mph    
Max Gust Speed -    
Visibility 10 miles    
Events      
Averages and records for this station are not official NWS values.
T = Trace of Precipitation, MM = Missing Value Source: NWS Daily Summary

Daily Weather History Graph

Daily Weather History Graph

Search for Another Location

Airport:

Trip Planner

Search our weather history database for the weather conditions in past years. The results will help you decide how hot, cold, wet, or windy it might be!

Date:

Astronomy

Mar. 09, 2014 Rise Set
Actual Time 7:54 AM CDT 7:26 PM CDT
Civil Twilight 7:23 AM CDT 7:57 PM CDT
Nautical Twilight 6:47 AM CDT 8:33 PM CDT
Astronomical Twilight 6:11 AM CDT 9:09 PM CDT
Moon 1:01 PM CDT (3/9) 3:40 AM CDT (3/9)
Length of Visible Light 12h 33m
Length of Day
11h 31m
First Quarter, 61% of the Moon is Illuminated
Mar 9
First Quarter
Mar 16
Full
Mar 23
Last Quarter
Mar 30
New
Apr 7
First Quarter

Hourly Weather History & Observations

Time (CDT) Temp. Windchill Dew Point Humidity Pressure Visibility Wind Dir Wind Speed Gust Speed Precip Events Conditions
12:58 AM 27.0 °F 15.2 °F 23.5 °F 87% 29.83 in 10.0 mi SW 15.0 mph - N/A   Clear
1:58 AM 26.8 °F 15.9 °F 23.7 °F 88% 29.80 in 10.0 mi SSW 12.7 mph - N/A   Clear
3:58 AM 26.2 °F 16.4 °F 23.9 °F 91% 29.75 in 10.0 mi South 10.4 mph - N/A   Clear
4:58 AM 29.1 °F 19.4 °F 26.4 °F 90% 29.71 in 10.0 mi SSW 11.5 mph - N/A   Clear
5:58 AM 31.8 °F 23.3 °F 28.2 °F 87% 29.69 in 10.0 mi SSW 10.4 mph - N/A   Scattered Clouds
6:58 AM 31.6 °F 24.4 °F 28.4 °F 88% 29.66 in 10.0 mi SSW 8.1 mph - N/A   Mostly Cloudy
7:58 AM 34.7 °F 29.6 °F 29.8 °F 82% 29.65 in 10.0 mi WSW 5.8 mph - N/A   Scattered Clouds
8:58 AM 35.4 °F 29.0 °F 29.7 °F 80% 29.64 in 10.0 mi WSW 8.1 mph - N/A   Clear
9:58 AM 40.6 °F 34.3 °F 31.8 °F 71% 29.64 in 10.0 mi West 10.4 mph - N/A   Clear
10:58 AM 41.7 °F 35.2 °F 32.2 °F 69% 29.64 in 10.0 mi West 11.5 mph - N/A   Clear
11:58 AM 42.3 °F 35.9 °F 31.8 °F 67% 29.63 in 10.0 mi West 11.5 mph - N/A   Clear
12:58 PM 40.8 °F 35.6 °F 32.4 °F 72% 29.66 in 10.0 mi WNW 8.1 mph - N/A   Clear
1:58 PM 41.4 °F 35.7 °F 32.0 °F 69% 29.65 in 10.0 mi WNW 9.2 mph - N/A   Clear
2:58 PM 40.8 °F 35.0 °F 32.2 °F 71% 29.64 in 10.0 mi WNW 9.2 mph - N/A   Clear
3:58 PM 39.9 °F 35.1 °F 32.4 °F 74% 29.64 in 10.0 mi NW 6.9 mph - N/A   Clear
4:58 PM 39.7 °F 35.6 °F 32.4 °F 75% 29.65 in 10.0 mi WNW 5.8 mph - N/A   Clear
5:58 PM 39.4 °F 37.2 °F 32.2 °F 75% 29.63 in 10.0 mi West 3.5 mph - N/A   Partly Cloudy
6:58 PM 36.9 °F 34.3 °F 32.7 °F 85% 29.63 in 10.0 mi WSW 3.5 mph - N/A   Clear
7:58 PM 34.3 °F - 31.5 °F 89% 29.64 in 10.0 mi Calm Calm - N/A   Clear
8:58 PM 31.5 °F 26.8 °F 30.2 °F 95% 29.62 in 10.0 mi SSW 4.6 mph - N/A   Clear
9:58 PM 30.9 °F 26.2 °F 30.0 °F 96% 29.60 in 10.0 mi SSW 4.6 mph - N/A   Clear
10:58 PM 32.2 °F 25.0 °F 31.1 °F 96% 29.59 in 10.0 mi SSW 8.1 mph - N/A   Clear
11:58 PM 33.8 °F 28.6 °F 31.5 °F 91% 29.57 in 10.0 mi WSW 5.8 mph - N/A   Clear
12:58 AM 37.9 °F 30.9 °F 32.9 °F 82% 29.55 in 10.0 mi WNW 10.4 mph - N/A   Clear